Tracking 17844 objects as of 26-August-2016
HD Live streaming from Space Station
objects crossing your sky now

SL-8 R/B

Track SL-8 R/B now!
10-day predictions


NORAD ID: 13917
Int'l Code: 1983-021B
Perigee: 982.4 km
Apogee: 982.4 km
Inclination: 82.9 °
Period: 104.6 minutes
Semi major axis: 7353 km
RCS: 4.8067 m2 (large)
Launch date: March 24, 1983
Source: Commonwealth of Independent States (former USSR) (CIS)
Launch site: PLESETSK MISSILE AND SPACE COMPLEX (PKMTR)

Note: This is a ROCKET BODY
Your satellite tracking list
Your tracking list is empty





NASA's NSSDC Master Catalog

Two Line Element Set (TLE):
1 13917U 83021B   16238.16892588  .00000071  00000-0  56408-4 0  9997
2 13917  82.9424 106.7527 0028653   1.4942 112.5286 13.76793751678852
Source of the keplerian elements: AFSPC

N2YO: 470